Date String (YYYY-MM-DD hh:mm:ss) UTC,Instrument flags,absolute air pressure of the measurement (hPa),sample flow rate (lpm),inlet stack bypass flow (lpm),air temperature of the measurement (°C),ambient temperature measured by the external sensor (°C),aerosol sample conditioner tube jacket temperature (°C),OPC LED temperature (°C),internal box temperature (°C),relative humidity of the measurement (%),span deviation,mass concentration of particles derived from Lorenz-Mie calculation of OPC scattering (μg/m³),mass concentration of particles derived from Lorenz-Mie calculation of OPC scattering (μg/m³),mass concentration of particles derived from Lorenz-Mie calculation of OPC scattering (μg/m³)
DateTimeUTC,F1_M11,P_M11,Q1_M11,Q2_M11,T1_M11,T2_M11,T3_M11,T4_M11,T5_M11,U1_M11,ZSPAN_M11,X0_M11,X2_M11,X1_M11
2024-02-15 13:00:00,SystemResetWarning,0827.8,5.00,000.00,018.3,017.8,000.0,026.8,020.0,20.3,0002.7,0009.68,0007.29,0007.15
2024-02-15 13:01:00,SystemResetWarning,0827.9,5.00,000.00,018.3,017.7,000.0,026.9,020.0,20.3,0002.7,0009.76,0007.31,0007.15
2024-02-15 13:02:00,SystemResetWarning,0828.0,5.00,000.00,018.3,017.7,000.0,026.9,020.0,20.2,0002.4,0009.85,0007.33,0007.14
2024-02-15 13:03:00,SystemResetWarning,0828.1,5.00,000.00,018.3,017.7,000.0,026.9,020.0,20.3,0002.0,0009.90,0007.34,0007.14
2024-02-15 13:04:00,SystemResetWarning,0828.2,5.00,000.00,018.3,017.7,000.0,026.9,020.0,20.3,0001.9,0009.97,0007.37,0007.16
2024-02-15 13:05:00,SystemResetWarning,0828.1,5.00,000.00,018.3,017.7,000.0,026.9,020.0,20.3,0001.6,0009.98,0007.35,0007.14
2024-02-15 13:06:00,SystemResetWarning,0828.0,5.00,000.00,018.3,017.7,000.0,026.8,020.0,20.3,0001.7,0009.90,0007.34,0007.13
2024-02-15 13:07:00,SystemResetWarning,0828.0,5.00,000.00,018.2,017.7,000.0,026.8,020.0,20.3,0001.9,0009.87,0007.32,0007.11
2024-02-15 13:08:00,SystemResetWarning,0827.8,5.00,000.00,018.2,017.7,000.0,026.8,020.0,20.3,0001.8,0009.80,0007.27,0007.08
2024-02-15 13:09:00,SystemResetWarning,0828.1,5.00,000.00,018.2,017.7,000.0,026.8,020.0,20.4,0001.6,0009.81,0007.28,0007.09
2024-02-15 13:10:00,SystemResetWarning,0828.1,5.00,000.00,018.2,017.7,000.0,026.8,020.0,20.4,0001.4,0009.85,0007.30,0007.10
2024-02-15 13:11:00,SystemResetWarning,0828.2,5.00,000.00,018.2,017.7,000.0,026.8,020.0,20.4,0001.3,0009.87,0007.30,0007.11
2024-02-15 13:12:00,SystemResetWarning,0828.1,5.00,000.00,018.2,017.7,000.0,026.8,020.0,20.4,0001.2,0009.80,0007.27,0007.11
2024-02-15 13:13:00,SystemResetWarning,0828.1,5.00,000.00,018.2,017.7,000.0,026.8,020.0,20.4,0001.4,0009.75,0007.27,0007.12
2024-02-15 13:14:00,SystemResetWarning,0827.9,5.01,000.00,018.2,017.7,000.0,026.8,020.0,20.4,0001.9,0009.74,0007.29,0007.16
2024-02-15 13:15:00,SystemResetWarning,0827.7,5.00,000.00,018.2,017.6,000.0,026.9,020.0,20.3,0002.0,0009.70,0007.29,0007.16
2024-02-15 13:16:00,SystemResetWarning,0827.8,5.00,000.00,018.2,017.6,000.0,026.9,020.0,20.3,0001.9,0009.71,0007.30,0007.18
2024-02-15 13:17:00,SystemResetWarning,0828.0,5.00,000.00,018.2,017.6,000.0,026.9,020.0,20.3,0001.6,0009.77,0007.34,0007.21
2024-02-15 13:18:00,SystemResetWarning,0828.1,5.00,000.00,018.3,018.0,000.0,027.0,020.3,20.2,0001.5,0009.81,0007.37,0007.24
2024-02-15 13:19:00,SystemResetWarning,0828.1,5.01,000.00,018.5,018.8,000.0,027.1,020.8,20.0,0001.5,0009.91,0007.45,0007.30
2024-02-15 13:20:00,SystemResetWarning,0828.1,5.00,000.00,018.7,019.1,000.0,027.1,020.9,19.7,0001.5,0009.94,0007.49,0007.35
2024-02-15 13:21:00,SystemResetWarning,0827.9,4.99,000.00,018.7,019.0,000.0,027.0,020.7,19.6,0001.6,0009.91,0007.49,0007.37
2024-02-15 13:22:00,SystemResetWarning,0827.8,5.00,000.00,018.7,018.8,000.0,027.0,020.6,19.7,0001.7,0009.90,0007.52,0007.40
2024-02-15 13:23:00,SystemResetWarning,0827.8,5.00,000.00,018.7,018.7,000.0,026.9,020.4,19.7,0001.7,0009.91,0007.54,0007.42
2024-02-15 13:24:00,SystemResetWarning,0828.1,5.01,000.00,018.7,018.5,000.0,026.9,020.4,19.7,0001.5,0009.88,0007.51,0007.40
2024-02-15 13:25:00,SystemResetWarning,0828.0,5.01,000.00,018.7,018.4,000.0,027.0,020.4,19.7,0001.5,0009.87,0007.49,0007.38
2024-02-15 13:26:00,SystemResetWarning,0827.7,5.00,000.00,018.7,018.3,000.0,027.0,020.4,19.7,0001.6,0009.90,0007.50,0007.37
2024-02-15 13:27:00,SystemResetWarning,0827.7,4.99,000.00,018.6,018.3,000.0,027.0,020.4,19.7,0001.7,0009.90,0007.51,0007.37
2024-02-15 13:28:00,SystemResetWarning,0827.7,4.99,000.00,018.6,018.2,000.0,027.0,020.3,19.7,0001.9,0009.88,0007.50,0007.35
2024-02-15 13:29:00,SystemResetWarning,0827.8,4.99,000.00,018.6,018.1,000.0,026.9,020.2,19.7,0002.1,0009.89,0007.50,0007.35
2024-02-15 13:30:00,SystemResetWarning,0827.8,4.99,000.00,018.5,018.1,000.0,026.9,020.1,19.7,0002.0,0009.84,0007.46,0007.32
2024-02-15 13:31:00,SystemResetWarning,0828.1,5.00,000.00,018.5,018.0,000.0,026.9,020.2,19.7,0002.0,0009.86,0007.43,0007.28
2024-02-15 13:32:00,SystemResetWarning,0827.9,5.02,000.00,018.5,018.0,000.0,026.9,020.2,19.7,0002.0,0009.89,0007.42,0007.26
2024-02-15 13:33:00,SystemResetWarning,0827.7,5.00,000.00,018.5,018.0,000.0,026.9,020.2,19.8,0002.1,0010.16,0007.40,0007.22
2024-02-15 13:34:00,SystemResetWarning,0827.8,5.00,000.00,018.5,018.0,000.0,026.9,020.2,19.8,0002.1,0010.37,0007.39,0007.19
2024-02-15 13:35:00,SystemResetWarning,0827.8,5.00,000.00,018.5,018.0,000.0,026.9,020.2,19.9,0002.3,0010.82,0007.40,0007.20
2024-02-15 13:36:00,SystemResetWarning,0827.7,5.00,000.00,018.5,017.9,000.0,026.9,020.2,19.9,0002.4,0010.79,0007.39,0007.19
2024-02-15 13:37:00,SystemResetWarning,0827.6,5.00,000.00,018.4,017.9,000.0,026.9,020.1,19.9,0002.4,0010.76,0007.36,0007.17
2024-02-15 13:38:00,SystemResetWarning,0827.7,5.00,000.00,018.4,017.9,000.0,026.9,020.1,19.9,0002.5,0010.71,0007.34,0007.16
2024-02-15 13:39:00,SystemResetWarning,0827.7,5.00,000.00,018.4,017.9,000.0,026.9,020.0,19.9,0002.3,0010.68,0007.33,0007.17
2024-02-15 13:40:00,SystemResetWarning,0827.5,5.00,000.00,018.4,017.9,000.0,026.9,020.0,19.9,0002.1,0010.67,0007.33,0007.18
2024-02-15 13:41:00,SystemResetWarning,0827.6,5.00,000.00,018.4,017.8,000.0,026.9,020.0,19.9,0002.0,0010.69,0007.34,0007.19
2024-02-15 13:42:00,SystemResetWarning,0827.7,5.01,000.00,018.3,017.8,000.0,026.9,020.0,19.9,0002.1,0010.65,0007.34,0007.21
2024-02-15 13:43:00,SystemResetWarning,0827.6,5.01,000.00,018.3,017.8,000.0,026.9,020.0,20.0,0002.1,0010.64,0007.35,0007.24
2024-02-15 13:44:00,SystemResetWarning,0827.5,5.01,000.00,018.3,017.8,000.0,026.9,020.0,20.0,0002.1,0010.37,0007.37,0007.26
2024-02-15 13:45:00,SystemResetWarning,0827.6,5.00,000.00,018.3,017.8,000.0,026.8,020.0,20.0,0002.1,0010.17,0007.37,0007.26
2024-02-15 13:46:00,SystemResetWarning,0827.8,5.00,000.00,018.3,017.8,000.0,026.8,020.0,20.0,0001.9,0009.75,0007.39,0007.27
2024-02-15 13:47:00,SystemResetWarning,0827.8,4.99,000.00,018.3,017.9,000.0,026.8,020.0,20.0,0001.7,0009.77,0007.39,0007.28
2024-02-15 13:48:00,SystemResetWarning,0827.8,4.99,000.00,018.3,017.9,000.0,026.8,020.1,20.0,0001.6,0009.79,0007.42,0007.30
2024-02-15 13:49:00,SystemResetWarning,0827.8,4.99,000.00,018.3,017.9,000.0,026.8,020.1,20.0,0001.5,0009.80,0007.43,0007.30
2024-02-15 13:50:00,SystemResetWarning,0827.9,5.00,000.00,018.3,017.8,000.0,026.8,020.1,20.0,0001.8,0009.87,0007.45,0007.31
2024-02-15 13:51:00,SystemResetWarning,0827.8,5.01,000.00,018.3,017.9,000.0,026.8,020.1,20.0,0002.0,0009.91,0007.50,0007.34
2024-02-15 13:52:00,SystemResetWarning,0827.8,5.00,000.00,018.3,017.8,000.0,026.8,020.1,20.0,0001.9,0009.99,0007.54,0007.38
2024-02-15 13:53:00,SystemResetWarning,0828.1,5.00,000.00,018.3,017.8,000.0,026.8,020.0,20.0,0001.9,0010.04,0007.58,0007.41
2024-02-15 13:54:00,SystemResetWarning,0828.1,5.00,000.00,018.3,017.8,000.0,026.8,020.1,20.0,0001.9,0010.11,0007.62,0007.44
2024-02-15 13:55:00,SystemResetWarning,0827.7,4.99,000.00,018.3,017.8,000.0,026.8,020.1,20.0,0001.8,0010.16,0007.65,0007.46
2024-02-15 13:56:00,SystemResetWarning,0827.7,4.99,000.00,018.3,017.8,000.0,026.8,020.0,20.1,0001.8,0010.22,0007.70,0007.50
2024-02-15 13:57:00,SystemResetWarning,0827.8,5.00,000.00,018.3,017.8,000.0,026.8,020.0,20.1,0001.6,0010.21,0007.71,0007.53
2024-02-15 13:58:00,SystemResetWarning,0827.8,5.01,000.00,018.3,017.8,000.0,026.8,020.0,20.1,0001.9,0010.28,0007.76,0007.58
2024-02-15 13:59:00,SystemResetWarning,0827.9,5.00,000.00,018.3,017.8,000.0,026.8,020.0,20.1,0002.1,0010.33,0007.80,0007.61
